Regional Weather Roundup
Issued by NWS

Home | Current Version | Previous Version | Graphics & Text | Print | Product List | Glossary Off
Versions: 1 2 3 4 5 6 7 8 9 10 11 12 13 14 15 16 17 18 19 20 21 22 23 24 25 26 27 28 29 30 31 32 33 34 35 36 37 38 39 40 41 42 43 44 45 46 47 48 49 50

695
ASUS44 KJAN 260710
RWRMS

MISSISSIPPI HOURLY WEATHER ROUNDUP
NATIONAL WEATHER SERVICE JACKSON MS
200 AM CDT SAT JUL 26 2014

NOTE: "FAIR: INDICATES FEW OR NO CLOUDS BELOW 12,000 FEET WITH NO
SIGNIFICANT WEATHER AND/OR OBSTRUCTIONS TO VISIBILITY.

MSZ001>002-007>008-010>013-018>021-025>028-034>036-260800-
NORTHWEST MISSISSIPPI

CITY           SKY/WX    TMP DP  RH WIND       PRES   REMARKS
CLARKSDALE     FAIR      72  70  94 CALM      30.00F
CLEVELAND      FAIR      71  70  96 S3        29.98F
GREENWOOD      CLEAR     68  66  93 CALM      30.00S
GREENVILLE     CLEAR     72  69  90 CALM      29.99S
GRENADA        FAIR      64  64 100 CALM      30.00F
OLIVE BRANCH   CLEAR     66  66 100 CALM      30.00F
OXFORD         FAIR      64  63  94 CALM      30.03S
TUNICA         MOSUNNY   68  66  94 S5        30.00S
$$

MSZ003>006-009-014>017-022>024-029>033-037>039-260800-
NORTHEAST MISSISSIPPI

CITY           SKY/WX    TMP DP  RH WIND       PRES   REMARKS
BELMONT        FAIR      65  64  97 CALM      30.02F FOG
COLUMBUS AFB   CLEAR     64  64 100 CALM      30.01F
CORINTH        FAIR      66  64  94 CALM      30.01S FOG
GOLDN TRIANGLE CLEAR     64  61  88 CALM      30.02S
STARKVILLE     FAIR      63  61  94 CALM      30.01S
TUPELO         CLEAR     69  65  86 CALM      30.00F
$$

MSZ040-058-260800-
CENTRAL MISSISSIPPI

CITY           SKY/WX    TMP DP  RH WIND       PRES   REMARKS
JACKSON INTL   CLEAR     73  71  93 CALM      30.01F
JACKSON HAWKNS CLEAR     76  70  82 CALM      30.01F
MERIDIAN KEY   CLEAR     71  69  93 CALM      30.01S
MERIDIAN NAS   CLEAR     70  69  97 CALM      30.02S
RAYMOND        FAIR      72  66  83 CALM      30.01F HAZE
VICKSBURG      CLEAR     72  70  93 CALM      29.99F FOG
$$

MSZ059>079-260800-
SOUTH MISSISSIPPI

CITY           SKY/WX    TMP DP  RH WIND       PRES   REMARKS
BROOKHAVEN     FAIR      75  73  94 CALM      30.03F FOG
COLUMBIA       FAIR      73  73 100 CALM      30.01F FOG
HATTIESBURG    CLEAR     76  73  91 CALM      30.02F
MCCOMB         CLEAR     77  74  90 CALM      30.02F
NATCHEZ        PTCLDY    75  73  94 S5        30.01F
PINE BELT      CLEAR     75  72  88 CALM      30.03S
$$

MSZ080>082-260800-
COASTAL MISSISSIPPI

CITY           SKY/WX    TMP DP  RH WIND       PRES   REMARKS
BILOXI         PTCLDY    80  77  91 W2        30.00F
PASCAGOULA     CLEAR     77  75  93 CALM      30.00F
GULFPORT       PTCLDY    80  75  84 CALM      30.00F
$$



USA.gov is the U.S. government's official web portal to all federal, state and local government web resources and services.